CCA1760 ZUCK-ZSHC

Flight info

Callsign CCA1760
Flight time 1h 59m
Altitude 29100
Route OLNER1Z OLNER B213 WHA R343 UPLEL W95 SAPIN A470 IGRAT IGRAT91
Aircraft A321/M-SDE3FGHIRWY/LB1

Departure

Time 2026-04-28 12:41
Airport Chongqing Jiangbei International Airport (ZUCK)

Arrival

Time 2026-04-28 14:40
Airport Hangzhou Xiaoshan International Airport (ZSHC)
Time Latitude Longitude Altitude Speed Heading
2026-04-28 12:40 29.82910 106.72456 4917 ft 233 kts 33°
2026-04-28 12:41 29.84310 106.73466 5176 ft 255 kts 32°
2026-04-28 12:41 29.85671 106.74807 5765 ft 264 kts 56°
2026-04-28 12:41 29.86254 106.76807 6473 ft 270 kts 89°
2026-04-28 12:41 29.85904 106.78935 7178 ft 275 kts 106°
2026-04-28 12:42 29.85338 106.81060 7917 ft 279 kts 107°
2026-04-28 12:42 29.84756 106.83203 8640 ft 283 kts 107°
2026-04-28 12:42 29.84172 106.85357 9356 ft 287 kts 106°
2026-04-28 12:42 29.83569 106.87602 10078 ft 292 kts 106°
2026-04-28 12:43 29.82966 106.89876 10353 ft 312 kts 106°
2026-04-28 12:43 29.82310 106.92353 10493 ft 335 kts 106°
2026-04-28 12:43 29.81603 106.95003 10640 ft 356 kts 107°
2026-04-28 12:43 29.80476 106.97572 11094 ft 366 kts 127°
2026-04-28 12:44 29.78593 106.99564 11669 ft 372 kts 148°
2026-04-28 12:44 29.76183 107.00656 12272 ft 376 kts 170°
2026-04-28 12:44 29.73571 107.00653 12888 ft 380 kts 192°
2026-04-28 12:44 29.71016 106.99831 13506 ft 383 kts 198°
2026-04-28 12:45 29.68453 106.98933 14104 ft 387 kts 198°
2026-04-28 12:45 29.65863 106.98016 14663 ft 390 kts 198°
2026-04-28 12:45 29.63264 106.97096 15239 ft 393 kts 198°
2026-04-28 12:45 29.60584 106.96386 15792 ft 397 kts 189°
2026-04-28 12:46 29.57813 106.96213 16321 ft 401 kts 182°
2026-04-28 12:46 29.55022 106.96188 16904 ft 401 kts 183°
2026-04-28 12:46 29.52224 106.96164 17486 ft 402 kts 183°
2026-04-28 12:46 29.49418 106.96138 18012 ft 405 kts 184°
2026-04-28 12:47 29.46597 106.96108 18475 ft 407 kts 184°
2026-04-28 12:47 29.43758 106.96077 18897 ft 409 kts 184°
2026-04-28 12:47 29.40902 106.96041 19343 ft 411 kts 184°
2026-04-28 12:47 29.38038 106.96002 19772 ft 412 kts 184°
2026-04-28 12:48 29.35168 106.95963 20205 ft 414 kts 184°
2026-04-28 12:48 29.32286 106.95926 20622 ft 415 kts 184°
2026-04-28 12:48 29.29391 106.95893 20763 ft 415 kts 184°
2026-04-28 12:48 29.26511 106.95863 20810 ft 413 kts 184°
2026-04-28 12:49 29.23642 106.95831 20802 ft 412 kts 184°
2026-04-28 12:49 29.20771 106.95798 20808 ft 412 kts 184°
2026-04-28 12:49 29.17906 106.95762 20815 ft 412 kts 184°
2026-04-28 12:49 29.15038 106.95726 20815 ft 412 kts 184°
2026-04-28 12:50 29.12167 106.95708 20974 ft 416 kts 181°
2026-04-28 12:50 29.09273 106.96102 21394 ft 422 kts 172°
2026-04-28 12:50 29.06438 106.97075 21791 ft 429 kts 163°
2026-04-28 12:50 29.03641 106.98283 22188 ft 431 kts 163°
2026-04-28 12:51 29.00829 106.99492 22575 ft 433 kts 163°
2026-04-28 12:51 28.98008 107.00705 22994 ft 435 kts 163°
2026-04-28 12:51 28.95172 107.01928 23395 ft 437 kts 163°
2026-04-28 12:51 28.92324 107.03157 23741 ft 439 kts 163°
2026-04-28 12:52 28.89455 107.04392 24058 ft 441 kts 163°
2026-04-28 12:52 28.86579 107.05628 24362 ft 444 kts 163°
2026-04-28 12:52 28.83681 107.06875 24597 ft 447 kts 163°
2026-04-28 12:52 28.80768 107.08129 24688 ft 448 kts 163°
2026-04-28 12:53 28.77855 107.09380 24715 ft 447 kts 163°
2026-04-28 12:53 28.74945 107.10630 24715 ft 447 kts 163°
2026-04-28 12:53 28.72030 107.11880 24714 ft 447 kts 163°
2026-04-28 12:53 28.70100 107.12711 24711 ft 448 kts 162°
2026-04-28 12:54 28.66496 107.15147 24714 ft 458 kts 142°
2026-04-28 12:54 28.64402 107.17908 24715 ft 466 kts 125°
2026-04-28 12:54 28.63052 107.21273 24705 ft 472 kts 108°
2026-04-28 12:54 28.62576 107.24974 24706 ft 476 kts 91°
2026-04-28 12:55 28.63004 107.28708 24710 ft 478 kts 77°
2026-04-28 12:55 28.63782 107.32380 24707 ft 479 kts 77°
2026-04-28 12:55 28.64570 107.36066 24703 ft 479 kts 76°
2026-04-28 12:55 28.65361 107.39745 24703 ft 478 kts 77°
2026-04-28 12:56 28.66156 107.43434 24702 ft 481 kts 77°
2026-04-28 12:56 28.66951 107.47142 24698 ft 482 kts 77°
2026-04-28 12:56 28.67743 107.50853 24698 ft 483 kts 77°
2026-04-28 12:56 28.68530 107.54571 24695 ft 483 kts 77°
2026-04-28 12:57 28.69310 107.58287 24695 ft 483 kts 77°
2026-04-28 12:57 28.70089 107.62006 24694 ft 483 kts 77°
2026-04-28 12:57 28.70875 107.65728 24696 ft 483 kts 77°
2026-04-28 12:57 28.71668 107.69452 24695 ft 483 kts 77°
2026-04-28 12:58 28.72459 107.73170 24698 ft 484 kts 77°
2026-04-28 12:58 28.73249 107.76895 24696 ft 484 kts 77°
2026-04-28 12:58 28.74037 107.80627 24698 ft 485 kts 77°
2026-04-28 12:58 28.74822 107.84370 24695 ft 486 kts 77°
2026-04-28 12:59 28.75604 107.88112 24695 ft 485 kts 77°
2026-04-28 12:59 28.76383 107.91857 24698 ft 485 kts 77°
2026-04-28 12:59 28.76899 107.94333 24696 ft 486 kts 77°
2026-04-28 12:59 28.77947 107.99346 24697 ft 486 kts 77°
2026-04-28 13:00 28.78722 108.03092 24699 ft 486 kts 77°
2026-04-28 13:00 28.79235 108.05580 24702 ft 486 kts 78°
2026-04-28 13:00 28.80005 108.09324 24700 ft 486 kts 78°
2026-04-28 13:00 28.80780 108.13072 24700 ft 486 kts 77°
2026-04-28 13:01 28.81821 108.18090 24702 ft 486 kts 77°
2026-04-28 13:01 28.82335 108.20570 24700 ft 485 kts 78°
2026-04-28 13:01 28.83359 108.25527 24699 ft 485 kts 78°
2026-04-28 13:01 28.84130 108.29265 24705 ft 485 kts 78°
2026-04-28 13:02 28.84650 108.31795 24703 ft 485 kts 78°
2026-04-28 13:02 28.85415 108.35536 24701 ft 483 kts 78°
2026-04-28 13:02 28.86419 108.40464 24701 ft 482 kts 78°
2026-04-28 13:02 28.86933 108.42987 24704 ft 483 kts 78°
2026-04-28 13:03 28.87696 108.46714 24700 ft 482 kts 78°
2026-04-28 13:03 28.88458 108.50444 24703 ft 482 kts 78°
2026-04-28 13:03 28.89219 108.54168 24703 ft 482 kts 78°
2026-04-28 13:03 28.89969 108.57849 24708 ft 483 kts 78°
2026-04-28 13:04 28.90728 108.61582 24712 ft 483 kts 78°
2026-04-28 13:04 28.91486 108.65307 24710 ft 483 kts 78°
2026-04-28 13:04 28.92244 108.69040 24711 ft 483 kts 78°
2026-04-28 13:04 28.93000 108.72777 24709 ft 483 kts 78°
2026-04-28 13:05 28.93754 108.76506 24710 ft 482 kts 78°
2026-04-28 13:05 28.94507 108.80232 24711 ft 481 kts 78°
2026-04-28 13:05 28.95257 108.83954 24712 ft 480 kts 78°
2026-04-28 13:05 28.96003 108.87671 24714 ft 480 kts 78°
2026-04-28 13:06 28.96745 108.91376 24714 ft 479 kts 78°
2026-04-28 13:06 28.97486 108.95093 24717 ft 480 kts 77°
2026-04-28 13:06 28.98227 108.98808 24717 ft 479 kts 78°
2026-04-28 13:06 28.98967 109.02517 24718 ft 479 kts 78°
2026-04-28 13:07 28.99706 109.06230 24721 ft 479 kts 78°
2026-04-28 13:07 29.00443 109.09943 24726 ft 479 kts 78°
2026-04-28 13:07 29.01179 109.13654 24716 ft 479 kts 78°
2026-04-28 13:07 29.01915 109.17362 24720 ft 479 kts 78°
2026-04-28 13:08 29.02652 109.21073 24719 ft 479 kts 78°
2026-04-28 13:08 29.03388 109.24781 24719 ft 478 kts 78°
2026-04-28 13:08 29.04216 109.28463 24721 ft 479 kts 72°
2026-04-28 13:08 29.05485 109.31977 24722 ft 479 kts 62°
2026-04-28 13:09 29.07200 109.35232 24720 ft 478 kts 53°
2026-04-28 13:09 29.09166 109.38286 24722 ft 478 kts 52°
2026-04-28 13:09 29.11138 109.41345 24721 ft 478 kts 52°
2026-04-28 13:09 29.13104 109.44406 24723 ft 478 kts 53°
2026-04-28 13:10 29.15065 109.47478 24721 ft 477 kts 53°
2026-04-28 13:10 29.17022 109.50547 24720 ft 478 kts 53°
2026-04-28 13:10 29.18982 109.53619 24729 ft 477 kts 53°
2026-04-28 13:10 29.20918 109.56699 24730 ft 478 kts 56°
2026-04-28 13:11 29.22502 109.60047 24727 ft 480 kts 67°
2026-04-28 13:11 29.23553 109.63669 24725 ft 480 kts 78°
2026-04-28 13:11 29.24029 109.67445 24725 ft 479 kts 89°
2026-04-28 13:11 29.23933 109.71244 24727 ft 476 kts 99°
2026-04-28 13:12 29.23318 109.74952 24726 ft 474 kts 105°
2026-04-28 13:12 29.22564 109.78626 24725 ft 474 kts 106°
2026-04-28 13:12 29.21803 109.82297 24726 ft 474 kts 106°
2026-04-28 13:12 29.21032 109.85967 24729 ft 475 kts 106°
2026-04-28 13:13 29.20255 109.89651 24728 ft 476 kts 106°
2026-04-28 13:13 29.19474 109.93328 24727 ft 476 kts 106°
2026-04-28 13:13 29.18695 109.97001 24728 ft 476 kts 106°
2026-04-28 13:13 29.17919 110.00688 24727 ft 476 kts 106°
2026-04-28 13:14 29.17148 110.04364 24728 ft 476 kts 106°
2026-04-28 13:14 29.16377 110.08040 24725 ft 476 kts 106°
2026-04-28 13:14 29.15597 110.11725 24725 ft 476 kts 106°
2026-04-28 13:14 29.14811 110.15403 24718 ft 476 kts 107°
2026-04-28 13:15 29.14019 110.19083 24725 ft 476 kts 107°
2026-04-28 13:15 29.13229 110.22766 24728 ft 476 kts 106°
2026-04-28 13:15 29.12441 110.26447 24727 ft 477 kts 106°
2026-04-28 13:15 29.11657 110.30124 24727 ft 477 kts 106°
2026-04-28 13:16 29.10871 110.33808 24725 ft 477 kts 106°
2026-04-28 13:16 29.10068 110.37479 24721 ft 476 kts 109°
2026-04-28 13:16 29.08925 110.41007 24723 ft 472 kts 118°
2026-04-28 13:16 29.07352 110.44280 24723 ft 468 kts 127°
2026-04-28 13:17 29.05580 110.47407 25005 ft 470 kts 127°
2026-04-28 13:17 29.03807 110.50545 25364 ft 471 kts 127°
2026-04-28 13:17 29.02031 110.53695 25714 ft 472 kts 128°
2026-04-28 13:17 29.00248 110.56856 26040 ft 474 kts 128°
2026-04-28 13:18 28.98459 110.60026 26354 ft 475 kts 128°
2026-04-28 13:18 28.96667 110.63200 26654 ft 477 kts 128°
2026-04-28 13:18 28.94865 110.66386 26959 ft 478 kts 128°
2026-04-28 13:18 28.93054 110.69580 27283 ft 480 kts 128°
2026-04-28 13:19 28.91240 110.72778 27547 ft 481 kts 128°
2026-04-28 13:19 28.89414 110.75991 27838 ft 483 kts 128°
2026-04-28 13:19 28.87583 110.79211 28155 ft 484 kts 128°
2026-04-28 13:19 28.85748 110.82439 28440 ft 486 kts 128°
2026-04-28 13:20 28.83903 110.85685 28734 ft 488 kts 128°
2026-04-28 13:20 28.82058 110.88931 29047 ft 488 kts 128°
2026-04-28 13:20 28.80212 110.92176 29181 ft 485 kts 128°
2026-04-28 13:21 28.76613 110.98504 29209 ft 471 kts 128°
2026-04-28 13:21 28.73064 111.04696 29212 ft 469 kts 129°
2026-04-28 13:22 28.69495 111.10915 29214 ft 469 kts 128°
2026-04-28 13:22 28.65936 111.17137 29205 ft 469 kts 128°
2026-04-28 13:23 28.62395 111.23374 29197 ft 469 kts 128°
2026-04-28 13:23 28.58879 111.29629 29188 ft 469 kts 128°
2026-04-28 13:24 28.55357 111.35870 29190 ft 469 kts 128°
2026-04-28 13:24 28.51819 111.42102 29182 ft 469 kts 128°
2026-04-28 13:25 28.48282 111.48328 29179 ft 469 kts 128°
2026-04-28 13:25 28.44752 111.54554 29170 ft 469 kts 128°
2026-04-28 13:26 28.41214 111.60771 29164 ft 468 kts 128°
2026-04-28 13:26 28.37669 111.66977 29154 ft 468 kts 128°
2026-04-28 13:27 28.34126 111.73173 29158 ft 468 kts 128°
2026-04-28 13:27 28.30580 111.79374 29159 ft 468 kts 128°
2026-04-28 13:28 28.27047 111.85553 29144 ft 466 kts 128°
2026-04-28 13:28 28.23517 111.91712 29160 ft 465 kts 128°
2026-04-28 13:29 28.19995 111.97847 29137 ft 464 kts 128°
2026-04-28 13:29 28.16466 112.03959 29134 ft 463 kts 128°
2026-04-28 13:30 28.12933 112.10057 29115 ft 463 kts 128°
2026-04-28 13:30 28.09414 112.16156 29100 ft 463 kts 127°
2026-04-28 13:31 28.04144 112.25316 29081 ft 463 kts 127°
2026-04-28 13:31 28.00674 112.31461 29081 ft 466 kts 122°
2026-04-28 13:32 27.98528 112.38434 29071 ft 476 kts 103°
2026-04-28 13:32 27.97966 112.45940 29051 ft 480 kts 97°
2026-04-28 13:33 27.97508 112.53466 29054 ft 480 kts 97°
2026-04-28 13:33 27.97043 112.60996 29050 ft 480 kts 97°
2026-04-28 13:34 27.96570 112.68524 29052 ft 480 kts 97°
2026-04-28 13:34 27.96090 112.76054 29042 ft 480 kts 98°
2026-04-28 13:35 27.95602 112.83580 29039 ft 480 kts 98°
2026-04-28 13:35 27.95113 112.91104 29044 ft 479 kts 98°
2026-04-28 13:36 27.95053 112.98645 29032 ft 484 kts 85°
2026-04-28 13:36 27.96039 113.06183 29031 ft 485 kts 85°
2026-04-28 13:37 27.97007 113.13684 29021 ft 485 kts 85°
2026-04-28 13:37 27.97969 113.21248 29014 ft 486 kts 85°
2026-04-28 13:38 27.98925 113.28827 29007 ft 487 kts 85°
2026-04-28 13:38 27.99883 113.36428 29016 ft 488 kts 85°
2026-04-28 13:39 28.00838 113.44026 29004 ft 488 kts 84°
2026-04-28 13:39 28.01804 113.51646 29006 ft 490 kts 84°
2026-04-28 13:40 28.02768 113.59288 29009 ft 491 kts 85°
2026-04-28 13:40 28.03715 113.66945 29012 ft 491 kts 85°
2026-04-28 13:41 28.04665 113.74597 29012 ft 491 kts 85°
2026-04-28 13:41 28.05613 113.82266 29000 ft 492 kts 84°
2026-04-28 13:42 28.06550 113.89951 29002 ft 493 kts 84°
2026-04-28 13:42 28.07487 113.97644 29004 ft 493 kts 84°
2026-04-28 13:43 28.08425 114.05336 29010 ft 493 kts 84°
2026-04-28 13:43 28.09196 114.11733 29013 ft 493 kts 84°
2026-04-28 13:44 28.10281 114.20727 29018 ft 493 kts 84°
2026-04-28 13:44 28.11201 114.28431 29019 ft 494 kts 84°
2026-04-28 13:45 28.11964 114.34835 29022 ft 494 kts 84°
2026-04-28 13:45 28.13003 114.42529 29024 ft 495 kts 82°
2026-04-28 13:46 28.14159 114.50231 29014 ft 497 kts 82°
2026-04-28 13:46 28.15309 114.57952 29014 ft 497 kts 82°
2026-04-28 13:47 28.16416 114.65696 29012 ft 497 kts 83°
2026-04-28 13:47 28.17498 114.73440 29021 ft 498 kts 83°
2026-04-28 13:48 28.18580 114.81186 29018 ft 498 kts 83°
2026-04-28 13:48 28.19670 114.88925 29018 ft 497 kts 83°
2026-04-28 13:49 28.20761 114.96665 29019 ft 497 kts 83°
2026-04-28 13:49 28.21842 115.04411 29024 ft 497 kts 83°
2026-04-28 13:50 28.22914 115.12151 29034 ft 497 kts 83°
2026-04-28 13:50 28.23986 115.19883 29046 ft 496 kts 83°
2026-04-28 13:51 28.25045 115.27621 29038 ft 497 kts 83°
2026-04-28 13:51 28.26091 115.35365 29027 ft 497 kts 83°
2026-04-28 13:52 28.27142 115.43107 29036 ft 497 kts 83°
2026-04-28 13:52 28.28191 115.50863 29041 ft 497 kts 83°
2026-04-28 13:53 28.29237 115.58615 29042 ft 497 kts 83°
2026-04-28 13:53 28.30281 115.66365 29045 ft 497 kts 83°
2026-04-28 13:54 28.31320 115.74119 29051 ft 497 kts 83°
2026-04-28 13:54 28.32352 115.81862 29049 ft 496 kts 83°
2026-04-28 13:55 28.33507 115.89586 29050 ft 497 kts 76°
2026-04-28 13:55 28.35283 115.97173 29065 ft 497 kts 76°
2026-04-28 13:56 28.37618 116.04550 29047 ft 497 kts 67°
2026-04-28 13:56 28.40281 116.11804 29045 ft 498 kts 67°
2026-04-28 13:57 28.42935 116.19061 29039 ft 498 kts 68°
2026-04-28 13:57 28.45576 116.26332 29035 ft 498 kts 68°
2026-04-28 13:58 28.48204 116.33612 29050 ft 498 kts 68°
2026-04-28 13:58 28.50830 116.40893 29049 ft 497 kts 68°
2026-04-28 13:59 28.53464 116.48162 29049 ft 497 kts 68°
2026-04-28 13:59 28.56092 116.55431 29050 ft 497 kts 68°
2026-04-28 14:00 28.58708 116.62693 29051 ft 495 kts 68°
2026-04-28 14:00 28.61292 116.69889 29053 ft 494 kts 68°
2026-04-28 14:01 28.63892 116.77126 29053 ft 494 kts 68°
2026-04-28 14:01 28.66487 116.84359 29047 ft 493 kts 68°
2026-04-28 14:02 28.69071 116.91595 29036 ft 494 kts 68°
2026-04-28 14:02 28.71656 116.98864 29020 ft 496 kts 68°
2026-04-28 14:03 28.74251 117.06158 29015 ft 497 kts 68°
2026-04-28 14:03 28.76850 117.13463 29020 ft 498 kts 68°
2026-04-28 14:04 28.79454 117.20785 29022 ft 498 kts 68°
2026-04-28 14:04 28.82643 117.27751 29025 ft 496 kts 51°
2026-04-28 14:05 28.84914 117.30698 29025 ft 493 kts 40°
2026-04-28 14:05 28.87561 117.33154 29028 ft 489 kts 30°
2026-04-28 14:05 28.93617 117.36438 29038 ft 480 kts 14°
2026-04-28 14:06 28.99931 117.38942 29040 ft 482 kts 14°
2026-04-28 14:06 29.06273 117.41482 29041 ft 483 kts 14°
2026-04-28 14:07 29.12652 117.43889 29053 ft 482 kts 12°
2026-04-28 14:07 29.19034 117.46113 29051 ft 484 kts 12°
2026-04-28 14:08 29.25482 117.48369 29052 ft 485 kts 12°
2026-04-28 14:08 29.31641 117.51607 29067 ft 496 kts 32°
2026-04-28 14:09 29.34292 117.54163 29084 ft 501 kts 43°
2026-04-28 14:09 29.36519 117.57248 29079 ft 505 kts 54°
2026-04-28 14:09 29.38242 117.60762 29039 ft 508 kts 65°
2026-04-28 14:09 29.39684 117.64478 28667 ft 510 kts 66°
2026-04-28 14:10 29.41112 117.68204 28172 ft 510 kts 66°
2026-04-28 14:10 29.42527 117.71934 27669 ft 510 kts 66°
2026-04-28 14:10 29.43942 117.75670 27180 ft 510 kts 66°
2026-04-28 14:10 29.45356 117.79398 26696 ft 510 kts 66°
2026-04-28 14:11 29.46774 117.83126 26220 ft 510 kts 66°
2026-04-28 14:11 29.48193 117.86854 25763 ft 508 kts 66°
2026-04-28 14:11 29.49602 117.90555 25317 ft 505 kts 66°
2026-04-28 14:11 29.50998 117.94229 24862 ft 499 kts 66°
2026-04-28 14:12 29.52372 117.97856 24407 ft 494 kts 66°
2026-04-28 14:12 29.53861 118.01383 23964 ft 488 kts 59°
2026-04-28 14:12 29.55808 118.04547 23518 ft 482 kts 48°
2026-04-28 14:12 29.58123 118.07305 23011 ft 478 kts 43°
2026-04-28 14:13 29.60469 118.09992 22496 ft 474 kts 43°
2026-04-28 14:13 29.62782 118.12673 21990 ft 471 kts 44°
2026-04-28 14:13 29.65077 118.15348 21503 ft 468 kts 44°
2026-04-28 14:13 29.67347 118.18000 21008 ft 465 kts 44°
2026-04-28 14:14 29.69520 118.20749 20541 ft 463 kts 52°
2026-04-28 14:14 29.71223 118.23875 20068 ft 460 kts 64°
2026-04-28 14:14 29.72377 118.27283 19614 ft 456 kts 75°
2026-04-28 14:14 29.72959 118.30846 19153 ft 450 kts 87°
2026-04-28 14:15 29.72954 118.34416 18706 ft 443 kts 98°
2026-04-28 14:15 29.72640 118.37928 18262 ft 440 kts 99°
2026-04-28 14:15 29.72329 118.41403 17728 ft 433 kts 99°
2026-04-28 14:15 29.72024 118.44816 17223 ft 426 kts 99°
2026-04-28 14:16 29.71722 118.48184 16718 ft 420 kts 99°
2026-04-28 14:16 29.71426 118.51508 16225 ft 415 kts 98°
2026-04-28 14:16 29.71136 118.54783 15742 ft 408 kts 98°
2026-04-28 14:16 29.70850 118.58004 15270 ft 403 kts 99°
2026-04-28 14:17 29.70569 118.61148 14938 ft 395 kts 98°
2026-04-28 14:17 29.70292 118.64228 14861 ft 382 kts 99°
2026-04-28 14:17 29.70017 118.67250 14884 ft 379 kts 99°
2026-04-28 14:17 29.69738 118.70275 14886 ft 381 kts 98°
2026-04-28 14:18 29.69460 118.73313 14896 ft 382 kts 98°
2026-04-28 14:18 29.69182 118.76352 14888 ft 382 kts 98°
2026-04-28 14:18 29.68905 118.79396 14895 ft 382 kts 98°
2026-04-28 14:18 29.68629 118.82434 14810 ft 383 kts 98°
2026-04-28 14:19 29.68354 118.85473 14575 ft 382 kts 98°
2026-04-28 14:19 29.68079 118.88503 14346 ft 380 kts 98°
2026-04-28 14:19 29.67805 118.91518 14122 ft 378 kts 98°
2026-04-28 14:19 29.67530 118.94513 13891 ft 376 kts 99°
2026-04-28 14:20 29.67257 118.97491 13624 ft 374 kts 99°
2026-04-28 14:20 29.66985 119.00456 13359 ft 371 kts 99°
2026-04-28 14:20 29.66711 119.03394 13114 ft 369 kts 99°
2026-04-28 14:20 29.66437 119.06318 12865 ft 366 kts 99°
2026-04-28 14:21 29.66206 119.09223 12609 ft 365 kts 95°
2026-04-28 14:21 29.66280 119.12139 12358 ft 365 kts 86°
2026-04-28 14:21 29.66699 119.15011 12116 ft 365 kts 78°
2026-04-28 14:21 29.67453 119.17792 11869 ft 364 kts 70°
2026-04-28 14:22 29.68523 119.20424 11620 ft 363 kts 62°
2026-04-28 14:22 29.69889 119.22868 11401 ft 363 kts 55°
2026-04-28 14:22 29.71358 119.25223 11156 ft 361 kts 55°
2026-04-28 14:22 29.72813 119.27570 10904 ft 359 kts 56°
2026-04-28 14:23 29.74261 119.29904 10682 ft 358 kts 56°
2026-04-28 14:23 29.75704 119.32227 10452 ft 356 kts 56°
2026-04-28 14:23 29.77118 119.34507 10229 ft 353 kts 56°
2026-04-28 14:23 29.78556 119.36833 9988 ft 351 kts 56°
2026-04-28 14:24 29.79969 119.39123 9729 ft 351 kts 56°
2026-04-28 14:24 29.81377 119.41403 9471 ft 347 kts 57°
2026-04-28 14:24 29.82768 119.43656 9209 ft 343 kts 57°
2026-04-28 14:24 29.84141 119.45875 8999 ft 335 kts 57°
2026-04-28 14:25 29.85468 119.48018 8901 ft 320 kts 57°
2026-04-28 14:25 29.86725 119.50048 8917 ft 306 kts 57°
2026-04-28 14:25 29.87956 119.52041 8919 ft 304 kts 57°
2026-04-28 14:25 29.89164 119.53998 8918 ft 304 kts 57°
2026-04-28 14:26 29.90389 119.55982 8923 ft 304 kts 57°
2026-04-28 14:26 29.91616 119.57973 8925 ft 305 kts 57°
2026-04-28 14:26 29.92843 119.59969 8922 ft 305 kts 57°
2026-04-28 14:26 29.94070 119.61968 8921 ft 305 kts 57°
2026-04-28 14:27 29.95300 119.63967 8924 ft 306 kts 57°
2026-04-28 14:27 29.96507 119.65978 8927 ft 304 kts 62°
2026-04-28 14:27 29.97321 119.68200 8919 ft 301 kts 73°
2026-04-28 14:27 29.98018 119.70476 8673 ft 299 kts 74°
2026-04-28 14:28 29.98704 119.72727 8419 ft 296 kts 74°
2026-04-28 14:28 29.99384 119.74960 8170 ft 293 kts 74°
2026-04-28 14:28 30.00052 119.77164 7924 ft 290 kts 74°
2026-04-28 14:28 30.00717 119.79354 7684 ft 288 kts 75°
2026-04-28 14:29 30.01374 119.81517 7438 ft 284 kts 74°
2026-04-28 14:29 30.02023 119.83653 7184 ft 282 kts 75°
2026-04-28 14:29 30.02672 119.85794 6987 ft 283 kts 75°
2026-04-28 14:29 30.03318 119.87933 6871 ft 279 kts 75°
2026-04-28 14:30 30.03945 119.90005 6682 ft 269 kts 75°
2026-04-28 14:30 30.04552 119.92006 6483 ft 259 kts 75°
2026-04-28 14:30 30.05135 119.93925 6277 ft 251 kts 75°
2026-04-28 14:30 30.05702 119.95795 6066 ft 243 kts 75°
2026-04-28 14:31 30.06251 119.97612 5866 ft 236 kts 74°
2026-04-28 14:31 30.06610 119.98807 5725 ft 231 kts 74°
2026-04-28 14:31 30.07294 120.01087 5459 ft 223 kts 74°
2026-04-28 14:31 30.07634 120.02221 5327 ft 219 kts 74°
2026-04-28 14:32 30.08287 120.04385 5065 ft 213 kts 73°
2026-04-28 14:32 30.08614 120.05470 4929 ft 209 kts 73°
2026-04-28 14:32 30.09086 120.07032 4753 ft 202 kts 73°
2026-04-28 14:32 30.09536 120.08523 4645 ft 190 kts 73°
2026-04-28 14:33 30.10218 120.10311 4465 ft 177 kts 66°
2026-04-28 14:33 30.10591 120.11143 4383 ft 171 kts 66°
2026-04-28 14:33 30.11312 120.12754 4234 ft 170 kts 66°
2026-04-28 14:33 30.11670 120.13554 4148 ft 170 kts 66°
2026-04-28 14:34 30.12741 120.15950 3892 ft 167 kts 66°
2026-04-28 14:34 30.13276 120.17149 3767 ft 166 kts 66°
2026-04-28 14:34 30.13806 120.18335 3640 ft 166 kts 66°
2026-04-28 14:35 30.14333 120.19515 3512 ft 165 kts 66°
2026-04-28 14:35 30.14860 120.20697 3403 ft 165 kts 65°
2026-04-28 14:35 30.15384 120.21872 3271 ft 164 kts 65°
2026-04-28 14:35 30.15907 120.23044 3147 ft 164 kts 65°
2026-04-28 14:36 30.16427 120.24211 3085 ft 164 kts 65°
2026-04-28 14:36 30.16950 120.25383 2934 ft 164 kts 65°
2026-04-28 14:36 30.17470 120.26551 2749 ft 164 kts 65°
2026-04-28 14:36 30.17992 120.27722 2522 ft 163 kts 64°
2026-04-28 14:37 30.18491 120.28843 2307 ft 151 kts 64°
2026-04-28 14:37 30.18962 120.29902 2104 ft 146 kts 64°
2026-04-28 14:37 30.19425 120.30941 1909 ft 145 kts 64°
2026-04-28 14:37 30.19871 120.31945 1734 ft 136 kts 64°
2026-04-28 14:38 30.20298 120.32903 1540 ft 133 kts 63°
2026-04-28 14:38 30.20717 120.33846 1352 ft 132 kts 62°
2026-04-28 14:38 30.21137 120.34791 1175 ft 131 kts 62°
2026-04-28 14:38 30.21553 120.35727 1000 ft 131 kts 61°
2026-04-28 14:39 30.21968 120.36661 822 ft 130 kts 60°
2026-04-28 14:39 30.22383 120.37594 667 ft 131 kts 59°
2026-04-28 14:39 30.22800 120.38535 500 ft 132 kts 59°
2026-04-28 14:39 30.23216 120.39477 311 ft 131 kts 59°
2026-04-28 14:40 30.23630 120.40413 141 ft 132 kts 60°
2026-04-28 14:40 30.23904 120.41036 44 ft 129 kts 59°
2026-04-28 14:40 30.24314 120.41938 33 ft 49 kts 63°
2026-04-28 14:40 30.24431 120.42208 32 ft 34 kts 63°
2026-04-28 14:41 30.24521 120.42416 30 ft 24 kts 68°
2026-04-28 14:41 30.24557 120.42591 29 ft 21 kts 85°
2026-04-28 14:41 30.24558 120.42702 31 ft 11 kts 89°
2026-04-28 14:41 30.24547 120.42761 31 ft 6 kts 122°
2026-04-28 14:42 30.24529 120.42781 32 ft 3 kts 148°
2026-04-28 14:42 30.24503 120.42783 32 ft 5 kts 195°
2026-04-28 14:42 30.24474 120.42743 32 ft 8 kts 245°
2026-04-28 14:42 30.24442 120.42669 32 ft 13 kts 242°
2026-04-28 14:43 30.24395 120.42562 32 ft 17 kts 243°
2026-04-28 14:43 30.24348 120.42455 32 ft 10 kts 243°
2026-04-28 14:43 30.24302 120.42418 32 ft 8 kts 185°
2026-04-28 14:43 30.24255 120.42441 32 ft 8 kts 153°
2026-04-28 14:44 30.24207 120.42470 30 ft 8 kts 153°
2026-04-28 14:44 30.24173 120.42514 32 ft 7 kts 130°
2026-04-28 14:44 30.24132 120.42545 31 ft 7 kts 153°
2026-04-28 14:44 30.24093 120.42568 32 ft 6 kts 153°
2026-04-28 14:45 30.24059 120.42588 31 ft 5 kts 153°
2026-04-28 14:45 30.24036 120.42611 30 ft 5 kts 118°
2026-04-28 14:45 30.24041 120.42657 30 ft 2 kts 71°
2026-04-28 14:45 30.24043 120.42662 31 ft 0 kts 70°
2026-04-28 14:46 30.24043 120.42663 31 ft 0 kts 70°